www.pogodaiklimat.ru

Погода и климат >> Архив погоды >> Оман >> Qarn Alam


ПОГОДА в Qarn Alam

  • Прогноз погоды в Qarn Alam
  • Монитор погоды в Qarn Alam
  • Климат города

АРХИВ ПОГОДЫ в Qarn Alam

Время (UTC), дата Ветер
(напр.,м/с)
 
Видим.   Явления Облачность Т
(С)
Тd
(С)
f
(%)
Тe
(С)
Тes
(С)
Комфортность P
(гПа)
Po
(гПа)
Тmin
(С)
Tmax
(С)
R
(мм)
R24
(мм)
S
(см)
03 8.08 СВ 1 н/о н/о +30.3 +19.8 53 +36 +36 очень
душно
996.2 980.2
06 8.08 СЗ 5 н/о н/о +40.7 +14.2 21 +41 +41 опасность
перегрева
996.0 980.5 +29.9
09 8.08 СЗ 5 н/о н/о +46.3 +5.5 9 +44 +44 опасность
перегрева
993.7 978.4
12 8.08 З 4 н/о н/о +47.8 +0.3 6 +44 +44 опасность
перегрева
992.0 976.8
15 8.08 З 4 н/о н/о +45.6 +7.8 11 +42 +42 опасность
перегрева
992.8 977.5
18 8.08 В 8 н/о н/о +36.6 +18.0 34 +40 +40 очень
душно
996.4 980.6 +48.3
21 8.08 ЮВ 7 н/о н/о +32.7 +20.6 49 +40 +40 очень
душно
996.4 980.5
00 9.08 В 5 н/о н/о +30.4 +20.6 56 +37 +37 очень
душно
996.5 980.4
03 9.08 В 7 н/о н/о +29.4 +20.6 59 +36 +36 очень
душно
998.5 982.4
06 9.08 В 10 н/о н/о +31.7 +20.4 51 +38 +38 очень
душно
999.7 983.7 +29.0
09 9.08 ЮВ 9 н/о н/о +38.6 +17.8 30 +42 +42 опасность
перегрева
998.8 983.1
12 9.08 ЮВ 9 н/о н/о +41.4 +14.2 20 +42 +42 опасность
перегрева
997.4 981.9
15 9.08 ЮВ 11 н/о н/о +34.4 +18.1 38 +38 +38 очень
душно
999.4 983.5
18 9.08 В 9 н/о н/о +27.8 +20.7 65 +35 +35 очень
душно
1002.4 986.1 +41.9
21 9.08 В 8 н/о н/о +26.5 +21.2 73 +34 +34 очень
душно
1001.9 985.5
00 10.08 В 9 н/о н/о +25.4 +21.5 79 +32 +32 очень
душно
1001.6 985.3
03 10.08 ЮВ 7 н/о н/о +24.7 +21.6 83 +32 +32 очень
душно
1003.2 986.7
06 10.08 В 7 н/о н/о +30.2 +21.5 60 +38 +38 очень
душно
1003.5 987.3 +24.4
09 10.08 ЮВ 8 н/о н/о +37.9 +19.2 34 +43 +43 опасность
перегрева
1001.1 985.4
12 10.08 ЮВ 7 н/о н/о +40.2 +17.6 27 +43 +43 опасность
перегрева
999.4 983.8
15 10.08 ЮВ 8 н/о н/о +34.0 +20.4 45 +41 +41 опасность
перегрева
1001.1 985.2
18 10.08 В 6 н/о н/о +29.4 +21.0 61 +37 +37 очень
душно
1003.6 987.4 +40.6
21 10.08 В 8 н/о н/о +27.0 +21.6 72 +34 +34 очень
душно
1002.7 986.4
00 11.08 В 6 н/о н/о +25.3 +21.6 80 +32 +32 очень
душно
1002.2 985.8
03 11.08 В 5 н/о н/о +26.1 +21.7 77 +34 +34 очень
душно
1003.6 987.2
06 11.08 В 3 н/о н/о +32.0 +21.5 54 +40 +40 очень
душно
1003.5 987.4 +25.3
09 11.08 Ю 3 н/о н/о +39.2 +19.2 31 +43 +43 опасность
перегрева
1000.8 985.1
12 11.08 Ю 2 н/о н/о +42.4 +16.5 22 +44 +44 опасность
перегрева
998.2 982.7
15 11.08 ЮЗ 2 н/о н/о +41.6 +14.9 21 +42 +42 опасность
перегрева
998.5 983.0
18 11.08 Ю 8 н/о н/о +36.1 +19.9 39 +42 +42 опасность
перегрева
1000.3 984.5 +42.8
21 11.08 Ю 7 н/о н/о +32.8 +19.2 45 +38 +38 очень
душно
999.9 983.9
00 12.08 ЮЗ 6 н/о н/о +30.9 +19.2 50 +37 +37 очень
душно
999.3 983.2
03 12.08 штиль 0 н/о н/о +30.8 +19.3 50 +36 +36 очень
душно
1000.8 984.7
06 12.08 З 4 н/о н/о +36.6 +18.7 35 +41 +41 опасность
перегрева
1000.4 984.6 +30.1
09 12.08 З 5 н/о н/о +43.9 +16.1 20 +45 +45 опасность
перегрева
996.9 981.5
12 12.08 З 5 н/о н/о +46.9 +11.9 13 +46 +46 опасность
перегрева
993.9 978.7
15 12.08 З 6 н/о н/о +44.8 +9.0 12 +43 +43 опасность
перегрева
993.5 978.2
18 12.08 З 4 н/о н/о +39.6 +9.2 16 +38 +38 очень
жарко
994.9 979.3 +47.2
21 12.08 ЮЗ 7 н/о н/о +35.6 +18.1 36 +40 +40 очень
душно
995.1 979.4
00 13.08 З 5 н/о н/о +32.6 +18.4 43 +37 +37 очень
душно
994.9 979.0
03 13.08 З 4 н/о н/о +32.4 +16.0 37 +35 +35 душно 995.8 979.8
06 13.08 З 5 н/о н/о +40.6 +11.9 18 +40 +40 очень
жарко
995.5 980.0 +30.5
09 13.08 ЮЗ 5 н/о н/о +45.4 +4.7 9 +43 +43 опасность
перегрева
993.5 978.2
12 13.08 З 6 н/о н/о +46.7 +1.7 7 +43 +43 опасность
перегрева
991.8 976.5
15 13.08 З 4 н/о н/о +43.7 +3.5 9 +41 +41 опасность
перегрева
992.3 976.9
18 13.08 З 4 н/о н/о +38.4 +6.0 14 +36 +36 очень
жарко
994.2 978.5 +47.3
21 13.08 ЮВ 4 н/о н/о +34.0 +10.9 24 +33 +33 жарко 994.5 978.6
00 14.08 ЮЗ 6 н/о н/о +31.7 +17.7 43 +36 +36 очень
душно
995.1 979.1
03 14.08 ЮВ 1 н/о н/о +30.7 +17.6 46 +35 +35 очень
душно
996.9 980.9
06 14.08 ЮЗ 2 н/о н/о +37.4 +15.4 27 +39 +39 очень
душно
997.1 981.4 +30.2
09 14.08 С 3 н/о н/о +45.1 +16.3 19 +47 +47 опасность
перегрева
994.5 979.2
12 14.08 СЗ 4 н/о н/о +46.5 +9.0 11 +45 +45 опасность
перегрева
992.8 977.5
15 14.08 З 4 н/о н/о +44.7 +7.9 11 +42 +42 опасность
перегрева
993.9 978.5
18 14.08 В 9 н/о н/о +40.3 +16.1 24 +42 +42 опасность
перегрева
996.3 980.8 +47.7
21 14.08 Ю 7 н/о н/о +35.5 +18.0 36 +39 +39 очень
душно
996.4 980.6

 

Местоположение метеостанции Qarn Alam (Оман): широта 21.37 долгота 57.05 высота над уровнем моря 139 м.

В архиве по умолчанию представлена погода в Qarn Alam за последнюю неделю. Архивные данные за месяц целиком и за предыдущие месяцы, начиная с января 2011 года, Вы можете получить, выбрав интересующий диапазон дат из раскрывающегося списка и нажав кнопку "Ввод!".


*Определитесь, кто Вы:
робот инопланетянин человек

Внимание! Время в таблицах - всемирное. Для получения местного времени необходимо прибавить поправку, которая в Qarn Alam равна 4 ч.

Смотрите также архив погоды в соседних городах и на ближайших метеорологических станциях:

Погода в Umzamaim (Оман) (64 км)
Погода в Fahud (Оман) (122 км)
Погода в Adam (Оман) (122 км)
Погода в Joba (Оман) (137 км)
Погода в Yaaloni (Оман) (159 км)
Погода в Al Mudhaibi (Оман) (169 км)
Погода в Nizwa (Оман) (172 км)
Погода в Bahla (Оман) (181 км)
Погода в Saiq (Оман) (198 км)
Погода в Duqm (Оман) (204 км)

Пояснения к столбцам:

Ветер - указаны скорость ветра в м/с - средняя за 10 мин, порывы в срок и между сроками (в фигурных скобках) и направление, откуда дует ветер: С - северный, СВ - северо-восточный, В - восточный, ЮВ - юго-восточный, Ю - южный, ЮЗ - юго-западный, З - западный, СЗ - северо-западный.
Видимость - горизонтальная дальность видимости в метрах или километрах. При видимости от 1 до 10 км при отсутствии осадков обычно наблюдается дымка, при ухудшении видимости до 1 км и менее - туман. В сухую погоду видимость может ухудшаться дымом, пылью или мглою.
Явления - указаны атмосферные явления, наблюдавшиеся в срок или в последний час перед сроком; фигурными скобками обозначены явления, наблюдавшиеся между сроками (за 1-3 часа до срока); квадратными скобками обозначены град или гололедные отложения с указанием их диаметра в мм.
Облачность - указаны через наклонную черту общая и нижняя облачность в баллах и высота нижней границы облаков в метрах; квадратными скобками обозначены формы облаков: Ci - перистые, Cs - перисто-слоистые, Cc - перисто-кучевые, Ac - высококучевые, As - высокослоистые, Sc - слоисто-кучевые, Ns - слоисто-дождевые, Cu - кучевые, Cb - кучево-дождевые. Подробнее классификацию облаков см. в Атласе облаков (PDF).
T - Температура воздуха - температура, измеренная на высоте 2 м над землей.
Td - Температура точки росы - температура, при понижении до которой содержащийся в воздухе водяной пар достигнет насыщения.
f - Относительная влажность воздуха - влажноcть воздуха, измеренная на высоте 2 м над землей.
Te - Эффективная температура - температура, которую ощущает одетый по сезону человек в тени. Характеристика душности погоды. При расчете учитывается влияние влажности воздуха и скорости ветра на теплоощущения человека.
Tes - Эффективная температура на солнце - температура, которую ощущает человек, с поправкой на солнечный нагрев. Характеристика знойности погоды. Зависит от высоты солнца над горизонтом, облачности и скорости ветра. Ночью, в пасмурную погоду, а также при ветре 12 м/с и более поправка равна нулю.
P - Атмосферное давление - приведенное к уровню моря атмосферное давление.
Po - Атмосферное давление - измеренное на уровне метеостанции атмосферное давление.
Tmin - Минимальная температура - минимум температуры воздуха на высоте 2 м над землей.
Tmax - Максимальная температура - максимум температуры воздуха на высоте 2 м над землей.
R - Количество осадков - Количество выпавших осадков за период времени, мм. При наведении курсора мыши на число - период времени, за который выпало указанное количество осадков.
R24 - Количество осадков - Количество выпавших осадков за 24 часа, мм.
S - Снежный покров - Высота снежного покрова, см. При наведении курсора мыши на число - состояние снежного покрова и степень покрытия местности в баллах.